Tracking 19717 objects as of 24-Jun-2019
HD Live streaming from Space Station
objects crossing your sky now

SL-8 DEB

Track SL-8 DEB now!
10-day predictions


NORAD ID: 21408
Int'l Code: 1991-009BX
Perigee: 1,458.1 km
Apogee: 1,779.3 km
Inclination: 74.0 °
Period: 118.5 minutes
Semi major axis: 7989 km
RCS: 0.0598 m2 (small)
Launch date: February 12, 1991
Source: Commonwealth of Independent States (former USSR) (CIS)
Launch site: PLESETSK MISSILE AND SPACE COMPLEX (PKMTR)

Note: This is SATELLITE DEBRIS
aabbcc
Your satellite tracking list
Your tracking list is empty




NASA's NSSDC Master Catalog

Two Line Element Set (TLE):
1 21408U 91009BX  19173.65814074 -.00000070 +00000-0 -54484-3 0  9997
2 21408 074.0266 250.0485 0200970 090.9809 027.9194 12.15650578255328
Source of the keplerian elements: AFSPC